Change the Weather History Date:

Monday, April 2, 2012

  Actual Average Record
Temperature  
Mean Temperature 75 °F 55 °F  
Max Temperature 87 °F 67 °F 87 °F (1946)
Min Temperature 62 °F 43 °F 25 °F (1924)
Degree Days  
Heating Degree Days 0    
Month to date heating degree days 0  
Since 1 July heating degree days 2666  
Cooling Degree Days 10    
Month to date cooling degree days 14  
Year to date cooling degree days 75  
Growing Degree Days 24 (Base 50)    
Moisture  
Dew Point 61 °F    
Average Humidity 69    
Maximum Humidity 93    
Minimum Humidity 44    
Precipitation  
Precipitation 0.00 in 0.12 in 1.80 in (2009)
Month to date precipitation 0.00 0.24  
Year to date precipitation 11.05 12.04  
Snow  
Snow 0.00 in 0.00 in 1.00 in (1951)
Month to date snowfall 0.0 0.0  
Since 1 July snowfall 0.4 6.3  
Snow Depth 0.00 in    
Sea Level Pressure  
Sea Level Pressure 29.81 in    
Wind  
Wind Speed 5 mph (SSW)    
Max Wind Speed 14 mph    
Max Gust Speed 21 mph    
Visibility 10 miles    
Events      
T = Trace of Precipitation, MM = Missing Value Source: NWS Daily Summary

Daily Weather History Graph

Daily Weather History Graph

Search for Another Location

Airport or City:

Trip Planner

Search our weather history database for the weather conditions in past years. The results will help you decide how hot, cold, wet, or windy it might be!

Date:

Astronomy

Apr. 02, 2012 Rise Set
Actual Time 6:30 AM CDT 7:09 PM CDT
Civil Twilight 6:04 AM CDT 7:35 PM CDT
Nautical Twilight 5:34 AM CDT 8:06 PM CDT
Astronomical Twilight 5:03 AM CDT 8:37 PM CDT
Moon 2:52 PM CDT (4/2) 3:35 AM CDT (4/2)
Length of Visible Light 13h 30m
Length of Day
12h 39m
Waxing Gibbous, 78% of the Moon is Illuminated
Apr 2
Waxing Gibbous
Apr 6
Full
Apr 13
Last Quarter
Apr 21
New
Apr 29
First Quarter

Hourly Weather History & Observations

Time (CDT) Temp. Heat Index Dew Point Humidity Pressure Visibility Wind Dir Wind Speed Gust Speed Precip Events Conditions
12:53 AM 68.0 °F - 60.1 °F 76% 29.74 in 10.0 mi SSW 4.6 mph - N/A   Clear
1:53 AM 68.0 °F - 60.1 °F 76% 29.74 in 10.0 mi Calm Calm - N/A   Clear
2:53 AM 64.0 °F - 59.0 °F 84% 29.74 in 10.0 mi South 5.8 mph - N/A   Clear
3:53 AM 63.0 °F - 59.0 °F 87% 29.74 in 10.0 mi South 4.6 mph - N/A   Clear
4:53 AM 66.0 °F - 60.1 °F 81% 29.76 in 10.0 mi Calm Calm - N/A   Clear
5:53 AM 64.0 °F - 60.1 °F 87% 29.78 in 10.0 mi Variable 4.6 mph - N/A   Clear
6:53 AM 63.0 °F - 60.1 °F 90% 29.81 in 10.0 mi Calm Calm - N/A   Clear
7:53 AM 66.9 °F - 62.1 °F 84% 29.83 in 10.0 mi South 5.8 mph - N/A   Clear
8:53 AM 73.0 °F - 63.0 °F 71% 29.83 in 10.0 mi SW 5.8 mph - N/A   Clear
9:53 AM 75.9 °F - 64.0 °F 67% 29.84 in 10.0 mi West 10.4 mph - N/A   Clear
10:53 AM 79.0 °F - 64.9 °F 62% 29.85 in 10.0 mi WSW 9.2 mph - N/A   Mostly Cloudy
11:53 AM 80.1 °F 81.7 °F 64.0 °F 58% 29.85 in 10.0 mi West 12.7 mph - N/A   Mostly Cloudy
12:53 PM 82.0 °F 83.1 °F 63.0 °F 52% 29.84 in 10.0 mi SW 8.1 mph - N/A   Mostly Cloudy
1:53 PM 82.9 °F 83.7 °F 62.1 °F 49% 29.82 in 10.0 mi SW 4.6 mph - N/A   Scattered Clouds
2:53 PM 86.0 °F 86.3 °F 62.1 °F 44% 29.80 in 10.0 mi Variable 3.5 mph - N/A   Partly Cloudy
3:53 PM 84.9 °F 85.0 °F 61.0 °F 44% 29.78 in 10.0 mi SE 3.5 mph - N/A   Partly Cloudy
4:53 PM 84.9 °F 84.8 °F 60.1 °F 43% 29.78 in 10.0 mi Calm Calm - N/A   Partly Cloudy
5:53 PM 82.0 °F 82.7 °F 61.0 °F 49% 29.77 in 10.0 mi East 6.9 mph - N/A   Partly Cloudy
6:53 PM 79.0 °F - 61.0 °F 54% 29.78 in 10.0 mi SSE 4.6 mph - N/A   Partly Cloudy
7:53 PM 77.0 °F - 61.0 °F 58% 29.82 in 10.0 mi SSW 4.6 mph - N/A   Partly Cloudy
8:53 PM 75.0 °F - 61.0 °F 62% 29.85 in 10.0 mi SSE 4.6 mph - N/A   Partly Cloudy
9:53 PM 73.0 °F - 61.0 °F 66% 29.86 in 10.0 mi South 3.5 mph - N/A   Clear
10:53 PM 73.9 °F - 60.1 °F 62% 29.86 in 10.0 mi SSW 5.8 mph - N/A   Clear
11:53 PM 71.1 °F - 60.1 °F 68% 29.86 in 10.0 mi SSW 3.5 mph - N/A   Clear